Regional Weather Roundup
Issued by NWS

Home | Current Version | Previous Version | Graphics & Text | Print | Product List | Glossary On
Versions: 1 2 3 4 5 6 7 8 9 10 11 12 13 14 15 16 17 18 19 20 21 22 23 24 25 26 27 28 29 30 31 32 33 34 35 36 37 38 39 40 41 42 43 44 45 46 47 48 49 50
000
ASUS45 KBOI 201810
RWRID
WEATHER ROUNDUP FOR IDAHO
NATIONAL WEATHER SERVICE BOISE ID
1200 PM MDT MON OCT 20 2014

NOTE: "FAIR" INDICATES FEW OR NO CLOUDS BELOW 12000 FEET
WITH NO SIGNIFICANT WEATHER AND/OR OBSTRUCTIONS TO VISIBILITY

IDZ012-014-201900-
SOUTHWEST IDAHO


CITY           SKY/WX    TMP DP  RH WIND       PRES   REMARKS
BOISE          SUNNY     66  33  29 N3        29.87F
CALDWELL       SUNNY     64  36  34 SE6       29.88F
MOUNTAIN HOME  MOSUNNY   70  34  27 E18       29.87F
$$

IDZ016-017-201900-
SOUTHCENTRAL IDAHO


CITY           SKY/WX    TMP DP  RH WIND       PRES   REMARKS
BURLEY         PTSUNNY   66  38  35 E5        29.96F
JEROME         LGT RAIN  72  33  24 NE7       29.95F
TWIN FALLS     SUNNY     78  34  20 S18G24    29.93F
$$

IDZ019>023-201900-
SOUTHEAST IDAHO


CITY           SKY/WX    TMP DP  RH WIND       PRES   REMARKS
IDAHO FALLS    MOSUNNY   62  36  37 N7        30.05F
POCATELLO      MOSUNNY   64  38  38 N5        30.02F
REXBURG        SUNNY     61  35  37 VRB3      30.05F
$$

IDZ006-010-011-018-031-032-201900-
CENTRAL IDAHO MOUNTAINS


CITY           SKY/WX    TMP DP  RH WIND       PRES   REMARKS
MCCALL         SUNNY     57  34  41 CALM      29.92F
HAILEY         PTSUNNY   59  34  38 NW7       30.05F
STANLEY          N/A     49  29  46 N3        30.04F
SALMON         NOT AVBL
CHALLIS        MOSUNNY   54  31  41 CALM      30.00F
$$

IDZ002-004-006-007-026-201900-
NORTHERN IDAHO


CITY           SKY/WX    TMP DP  RH WIND       PRES   REMARKS
LEWISTON       SUNNY     60  45  57 CALM      29.78F
LOWELL           N/A     54  43  66 N6        29.84F
COEUR D`ALENE  SUNNY     57  50  77 NE6       29.79S
MULLAN PASS    SUNNY     57  33  40 MISG      29.91S
$$



USA.gov is the U.S. government's official web portal to all federal, state and local government web resources and services.